Location: Czu?�w
(50.1404°N, 18.9919°E)
Time: 01:39:59
(UTC+00:00)

Cosmos 883 Rocket - Pass Details

Date: 27 October 2020
Orbit: 950 x 995 km, 83.0° (Epoch: 27 November)

Event Time Altitude Azimuth Distance (km) Brightness Sun altitude
Rises 18:03:13 0° 188° (S) 3,638 7.5 -25.2°
Reaches altitude 10° 18:05:42 10° 188° (S) 2,690 6.8 -25.6°
Maximum altitude 18:11:52 88° 279° (W) 963 4.4 -26.6°
Drops below altitude 10° 18:18:02 10° 9° (N) 2,690 6.8 -27.6°
Sets 18:20:32 0° 10° (N) 3,638 7.5 -28.0°
